DW7040 Weather Reports


Display with metric or nautical units.
time (UTC)temp
F
wind
direction
speed
MPH
gust
MPH
rain 1hr
in
rain 24hr
in
rain mn
in
humidity
%
barometer
mb
20260831144522 0 241 0.0 0.0 0.00 0.00 0.00 1005.6
20260831143052 0 241 0.0 0.0 0.00 0.00 0.00 1005.5
20260831141501 0 240 0.0 0.0 0.00 0.00 0.00 1005.2
20260831140046 0 240 0.0 0.0 0.00 0.00 0.00 1005.2
20260831134537 0 242 0.0 0.0 0.00 0.00 0.00 1005.0
20260831133059 0 240 0.0 0.0 0.00 0.00 0.00 1004.9
20260831133027 0 240 0.0 0.0 0.00 0.00 0.00 1004.9
20260831131524 0 240 0.0 0.0 0.00 0.00 0.00 1004.6
20260831130012 0 237 0.0 0.0 0.00 0.00 0.00 1004.4
20260831124534 0 240 0.0 0.0 0.00 0.00 0.00 1004.3
20260831124506 0 241 0.0 0.0 0.00 0.00 0.00 1004.3
20260831123014 0 238 0.0 0.0 0.00 0.00 0.00 1004.1
20260831121534 0 237 0.0 0.0 0.00 0.00 0.00 1003.9
20260831120039 0 240 0.0 0.0 0.00 0.00 0.00 1003.6
20260831114535 0 240 0.0 0.0 0.00 0.00 0.00 1003.5
20260831113029 0 240 0.0 0.0 0.00 0.00 0.00 1003.3
20260831111529 0 240 0.0 0.0 0.00 0.00 0.00 1003.1
20260831110011 0 241 0.0 0.0 0.00 0.00 0.00 1002.8
20260831104517 0 240 0.0 0.0 0.00 0.00 0.00 1002.7
20260831103048 0 240 0.0 0.0 0.00 0.00 0.00 1002.5
20260831101541 0 240 0.0 0.0 0.00 0.00 0.00 1002.3
20260831100044 0 240 0.0 0.0 0.00 0.00 0.00 1002.0
20260831094527 0 240 0.0 0.0 0.00 0.00 0.00 1001.7
20260831093015 0 242 0.0 0.0 0.00 0.00 0.00 1001.4
20260831091500 0 240 0.0 0.0 0.00 0.00 0.00 1001.2
20260831090011 0 240 0.0 0.0 0.00 0.00 0.00 1000.9
20260831083040 0 240 0.0 0.0 0.00 0.00 0.00 1000.3
20260831081512 0 240 0.0 0.0 0.00 0.00 0.00 1000.0
20260831080052 0 240 0.0 0.0 0.00 0.00 0.00 999.9
20260831074517 0 240 0.0 0.0 0.00 0.00 0.00 999.6
20260831073029 0 242 0.0 0.0 0.00 0.00 0.00 999.3
20260831071506 0 242 0.0 0.0 0.00 0.00 0.00 999.0
20260831070014 0 242 0.0 0.0 0.00 0.00 0.00 998.7
20260831064502 0 242 0.0 0.0 0.00 0.00 0.00 998.3
20260831063029 0 242 0.0 0.0 0.00 0.00 0.00 998.0
20260831061550 0 0.0 0.0 0.00 0.00 0.00 997.7
20260831060038 0 0.0 0.0 0.00 0.00 0.00 997.3
20260831054542 0 0.0 0.0 0.00 0.00 0.00 997.1
20260831051536 0 0.0 0.0 0.00 0.00 0.00 996.6
20260831050051 0 0.0 0.0 0.00 0.00 0.00 996.3
20260831050003 0 0.0 0.0 0.00 0.00 0.00 996.3
20260831044549 0 0.0 0.0 0.00 0.00 0.00 995.9
20260831043001 0 0.0 0.0 0.00 0.00 0.00 995.6
20260831041602 0 0.0 0.0 0.00 0.00 0.00 995.6
20260831040001 0 0.0 0.0 0.00 0.00 0.00 995.3
20260831033046 0 0.0 0.0 0.00 0.00 0.00 995.1
20260831031600 0 0.0 0.0 0.00 0.00 0.00 994.9
20260831024537 0 0.0 0.0 0.00 0.00 0.00 994.5
20260831023032 0 242 0.0 0.0 0.00 0.00 0.00 994.3
20260831021527 0 241 0.0 0.0 0.00 0.00 0.00 994.3
20260831020022 0 242 0.0 0.0 0.00 0.00 0.00 994.1
20260831014549 0 241 0.0 0.0 0.00 0.00 0.00 993.9
20260831013045 0 241 0.0 0.0 0.00 0.00 0.00 993.9
20260831011541 0 242 0.0 0.0 0.00 0.00 0.00 993.8
20260831010033 0 241 0.0 0.0 0.00 0.00 0.00 993.7
20260831004504 0 242 0.0 0.0 0.00 0.00 0.00 993.6
20260831003012 0 241 0.0 0.0 0.00 0.00 0.00 993.6
20260831001544 0 243 0.0 0.0 0.00 0.00 0.00 993.5
20260831000020 0 242 0.0 0.0 0.00 0.00 0.00 993.5
20260830234544 0 242 0.0 0.0 0.00 0.00 0.00 993.5
20260830233013 0 242 0.0 0.0 0.00 0.00 0.00 993.3
20260830231515 0 242 0.0 0.0 0.00 0.00 0.00 993.2
20260830230013 0 242 0.0 0.0 0.00 0.00 0.00 993.2
20260830224546 0 242 0.0 0.0 0.00 0.00 0.00 993.1
20260830223028 0 241 0.0 0.0 0.00 0.00 0.00 993.0
20260830221538 0 241 0.0 0.0 0.00 0.00 0.00 993.0
20260830220004 0 242 0.0 0.0 0.00 0.00 0.00 992.9
20260830214600 0 242 0.0 0.0 0.00 0.00 0.00 992.8
20260830213018 0 242 0.0 0.0 0.00 0.00 0.00 992.7
20260830211546 0 242 0.0 0.0 0.00 0.00 0.00 992.7
20260830210007 0 242 0.0 0.0 0.00 0.00 0.00 992.6
20260830204503 0 241 0.0 0.0 0.00 0.00 0.00 992.4
20260830203052 0 242 0.0 0.0 0.00 0.00 0.00 992.4
20260830201510 0 242 0.0 0.0 0.00 0.00 0.00 992.5
20260830200053 0 240 0.0 0.0 0.00 0.00 0.00 992.4
20260830194609 0 241 0.0 0.0 0.00 0.00 0.00 992.4
20260830194536 0 242 0.0 0.0 0.00 0.00 0.00 992.4
20260830194502 0 242 0.0 0.0 0.00 0.00 0.00 992.4
20260830193106 0 241 0.0 0.0 0.00 0.00 0.00 992.5
20260830191502 0 242 0.0 0.0 0.00 0.00 0.00 992.5
20260830190023 0 241 0.0 0.0 0.00 0.00 0.00 992.4
20260830184554 0 241 0.0 0.0 0.00 0.00 0.00 992.4
20260830183026 0 242 0.0 0.0 0.00 0.00 0.00 992.6
20260830181518 0 242 0.0 0.0 0.00 0.00 0.00 992.8
20260830180057 0 242 0.0 0.0 0.00 0.00 0.00 992.7
20260830174547 0 242 0.0 0.0 0.00 0.00 0.00 992.7
20260830173052 0 242 0.0 0.0 0.00 0.00 0.00 992.9
20260830173001 0 243 0.0 0.0 0.00 0.00 0.00 993.0
20260830171555 0 242 0.0 0.0 0.00 0.00 0.00 993.0
20260830170032 0 243 0.0 0.0 0.00 0.00 0.00 992.9
20260830164542 0 243 0.0 0.0 0.00 0.00 0.00 993.1
20260830163041 0 242 0.0 0.0 0.00 0.00 0.00 993.0
20260830161539 0 243 0.0 0.0 0.00 0.00 0.00 993.1
20260830161508 0 243 0.0 0.0 0.00 0.00 0.00 993.2
20260830160039 0 239 0.0 0.0 0.00 0.00 0.00 992.9
20260830154551 0 233 0.0 0.0 0.00 0.00 0.00 992.9
20260830153104 0 233 0.0 0.0 0.00 0.00 0.00 992.9
20260830153026 0 233 0.0 0.0 0.00 0.00 0.00 992.9
20260830151536 0 232 0.0 0.0 0.00 0.00 0.00 993.1
20260830150041 0 230 0.0 0.0 0.00 0.00 0.00 993.4